TimeMST,TemperatureF,Dew PointF,Humidity,Sea Level PressureIn,VisibilityMPH,Wind Direction,Wind SpeedMPH,Gust SpeedMPH,PrecipitationIn,Events,Conditions,WindDirDegrees,DateUTC
12:15 AM,17.6,10.4,73,-9999,10.0,NE,4.6,-,N/A,,Clear,50,2013-02-26 07:15:00
12:35 AM,15.8,10.4,79,-9999,10.0,ENE,5.8,-,N/A,,Clear,70,2013-02-26 07:35:00
12:55 AM,15.8,12.2,86,-9999,10.0,Calm,Calm,-,N/A,,Clear,0,2013-02-26 07:55:00
1:15 AM,15.8,12.2,86,-9999,10.0,Calm,Calm,-,N/A,,Clear,0,2013-02-26 08:15:00
1:35 AM,14.0,10.4,86,-9999,10.0,North,4.6,-,N/A,,Clear,10,2013-02-26 08:35:00
1:55 AM,14.0,10.4,86,-9999,10.0,North,3.5,-,N/A,,Clear,10,2013-02-26 08:55:00
2:15 AM,14.0,10.4,86,-9999,10.0,North,4.6,-,N/A,,Mostly Cloudy,350,2013-02-26 09:15:00
2:35 AM,14.0,10.4,86,-9999,5.0,Calm,Calm,-,N/A,Snow,Light Snow,0,2013-02-26 09:35:00
3:15 AM,14.0,10.4,86,-9999,10.0,NW,3.5,-,N/A,,Overcast,320,2013-02-26 10:15:00
3:35 AM,15.8,10.4,79,-9999,10.0,Calm,Calm,-,N/A,,Overcast,0,2013-02-26 10:35:00
3:55 AM,15.8,8.6,73,-9999,10.0,NNW,8.1,-,N/A,,Overcast,340,2013-02-26 10:55:00
4:15 AM,15.8,5.0,62,-9999,10.0,North,9.2,-,N/A,,Overcast,350,2013-02-26 11:15:00
4:35 AM,15.8,5.0,62,-9999,10.0,North,8.1,-,N/A,,Overcast,350,2013-02-26 11:35:00
4:55 AM,15.8,3.2,58,-9999,10.0,NNW,12.7,-,N/A,,Overcast,340,2013-02-26 11:55:00
5:15 AM,14.0,3.2,62,-9999,10.0,NNW,12.7,18.4,N/A,,Overcast,340,2013-02-26 12:15:00
5:35 AM,14.0,3.2,62,-9999,10.0,NNW,16.1,24.2,N/A,,Overcast,340,2013-02-26 12:35:00
5:55 AM,14.0,3.2,62,-9999,10.0,NNW,18.4,-,N/A,,Mostly Cloudy,340,2013-02-26 12:55:00
6:15 AM,14.0,3.2,62,-9999,10.0,NNW,16.1,-,N/A,,Mostly Cloudy,340,2013-02-26 13:15:00
6:35 AM,14.0,3.2,62,-9999,10.0,NNW,18.4,-,N/A,,Overcast,340,2013-02-26 13:35:00
7:15 AM,14.0,3.2,62,-9999,10.0,North,11.5,-,N/A,,Overcast,360,2013-02-26 14:15:00
7:35 AM,12.2,5.0,73,-9999,10.0,North,17.3,23.0,N/A,,Overcast,350,2013-02-26 14:35:00
7:55 AM,12.2,6.8,79,-9999,10.0,North,23.0,29.9,N/A,,Overcast,350,2013-02-26 14:55:00
8:35 AM,14.0,8.6,79,-9999,4.0,NNW,19.6,29.9,N/A,,Haze,340,2013-02-26 15:35:00
8:55 AM,17.6,8.6,68,-9999,5.0,North,18.4,28.8,N/A,,Haze,350,2013-02-26 15:55:00
9:15 AM,17.6,10.4,73,-9999,4.0,North,20.7,28.8,N/A,Snow,Light Snow,350,2013-02-26 16:15:00
9:35 AM,17.6,10.4,73,-9999,2.5,North,18.4,29.9,N/A,Snow,Light Snow,350,2013-02-26 16:35:00
9:55 AM,17.6,12.2,79,-9999,1.5,North,24.2,32.2,N/A,Snow,Light Snow,350,2013-02-26 16:55:00
10:35 AM,17.6,12.2,79,-9999,1.5,North,24.2,32.2,N/A,Snow,Light Snow,360,2013-02-26 17:35:00
10:55 AM,19.4,10.4,68,-9999,5.0,North,20.7,32.2,N/A,,Haze,360,2013-02-26 17:55:00
11:15 AM,19.4,10.4,68,-9999,5.0,North,25.3,31.1,N/A,Snow,Light Snow,360,2013-02-26 18:15:00
11:35 AM,19.4,8.6,63,-9999,5.0,North,25.3,32.2,N/A,Snow,Light Snow,360,2013-02-26 18:35:00
12:15 PM,21.2,8.6,58,-9999,10.0,North,23.0,28.8,N/A,,Mostly Cloudy,360,2013-02-26 19:15:00
12:35 PM,21.2,8.6,58,-9999,10.0,North,12.7,27.6,N/A,,Scattered Clouds,360,2013-02-26 19:35:00
12:55 PM,21.2,6.8,54,-9999,10.0,North,12.7,20.7,N/A,,Scattered Clouds,350,2013-02-26 19:55:00
1:15 PM,21.2,6.8,54,-9999,10.0,North,11.5,17.3,N/A,,Scattered Clouds,350,2013-02-26 20:15:00
1:35 PM,19.4,8.6,63,-9999,10.0,Calm,Calm,-,N/A,,Overcast,0,2013-02-26 20:35:00
1:55 PM,17.6,12.2,79,-9999,10.0,WSW,4.6,-,N/A,,Overcast,250,2013-02-26 20:55:00
2:15 PM,17.6,12.2,79,-9999,3.0,SW,6.9,-,N/A,Snow,Light Snow,230,2013-02-26 21:15:00
2:35 PM,17.6,14.0,86,-9999,4.0,SW,4.6,-,N/A,Snow,Light Snow,220,2013-02-26 21:35:00
2:55 PM,17.6,12.2,79,-9999,4.0,SW,4.6,-,N/A,,Overcast,220,2013-02-26 21:55:00
3:15 PM,17.6,14.0,86,-9999,1.2,SW,5.8,-,N/A,Snow,Light Snow,220,2013-02-26 22:15:00
3:35 PM,17.6,14.0,86,-9999,2.5,SW,4.6,-,N/A,Snow,Light Snow,220,2013-02-26 22:35:00
3:55 PM,17.6,14.0,86,-9999,2.0,SW,3.5,-,N/A,Snow,Light Snow,230,2013-02-26 22:55:00
4:15 PM,17.6,14.0,86,-9999,1.2,SW,3.5,-,N/A,Snow,Light Snow,220,2013-02-26 23:15:00
4:35 PM,17.6,14.0,86,-9999,2.5,Calm,Calm,-,N/A,Snow,Light Snow,0,2013-02-26 23:35:00
4:55 PM,17.6,14.0,86,-9999,1.2,Calm,Calm,-,N/A,Snow,Light Snow,0,2013-02-26 23:55:00
5:15 PM,17.6,14.0,86,-9999,3.0,Calm,Calm,-,N/A,Snow,Light Snow,0,2013-02-27 00:15:00
5:35 PM,17.6,14.0,86,-9999,10.0,Calm,Calm,-,N/A,,Overcast,0,2013-02-27 00:35:00
5:55 PM,17.6,14.0,86,-9999,10.0,Calm,Calm,-,N/A,,Overcast,0,2013-02-27 00:55:00
6:15 PM,15.8,12.2,86,-9999,10.0,Calm,Calm,-,N/A,,Scattered Clouds,0,2013-02-27 01:15:00
6:35 PM,15.8,12.2,86,-9999,10.0,Calm,Calm,-,N/A,,Mostly Cloudy,0,2013-02-27 01:35:00
6:55 PM,14.0,12.2,93,-9999,10.0,Calm,Calm,-,N/A,,Overcast,0,2013-02-27 01:55:00
7:15 PM,14.0,12.2,93,-9999,10.0,NNE,4.6,-,N/A,,Mostly Cloudy,20,2013-02-27 02:15:00
7:35 PM,14.0,12.2,93,-9999,10.0,North,4.6,-,N/A,,Mostly Cloudy,360,2013-02-27 02:35:00
8:15 PM,14.0,10.4,86,-9999,10.0,North,4.6,-,N/A,,Overcast,10,2013-02-27 03:15:00
8:35 PM,12.2,10.4,92,-9999,7.0,North,5.8,-,N/A,,Mostly Cloudy,360,2013-02-27 03:35:00
8:55 PM,12.2,10.4,92,-9999,10.0,North,4.6,-,N/A,,Scattered Clouds,360,2013-02-27 03:55:00
9:15 PM,12.2,10.4,92,-9999,10.0,NNW,4.6,-,N/A,,Mostly Cloudy,340,2013-02-27 04:15:00
9:35 PM,12.2,10.4,92,-9999,10.0,NNW,5.8,-,N/A,,Mostly Cloudy,340,2013-02-27 04:35:00
9:55 PM,12.2,10.4,92,-9999,10.0,North,4.6,-,N/A,,Scattered Clouds,350,2013-02-27 04:55:00
10:15 PM,12.2,10.4,92,-9999,10.0,North,4.6,-,N/A,,Clear,350,2013-02-27 05:15:00
10:35 PM,12.2,8.6,85,-9999,10.0,North,5.8,-,N/A,,Clear,360,2013-02-27 05:35:00
10:55 PM,12.2,8.6,85,-9999,10.0,North,3.5,-,N/A,,Clear,360,2013-02-27 05:55:00
11:15 PM,12.2,10.4,92,-9999,10.0,North,5.8,-,N/A,,Clear,10,2013-02-27 06:15:00
11:35 PM,12.2,8.6,85,-9999,10.0,North,4.6,-,N/A,,Scattered Clouds,350,2013-02-27 06:35:00
11:55 PM,14.0,10.4,86,-9999,10.0,North,3.5,-,N/A,,Mostly Cloudy,10,2013-02-27 06:55:00